Tracking 29494 objects as of 8-Sep-2024
HD Live streaming from Space Station
objects crossing your sky now

SCOUT X-4 DEB

Track SCOUT X-4 DEB now!
10-day predictions


NORAD ID: 2088
Int'l Code: 1965-093D
Perigee: 644.8 km
Apogee: 764.1 km
Inclination: 59.7 °
Period: 98.7 minutes
Semi major axis: 7075 km
RCS: 0.0298 m2 (small)
Launch date: November 19, 1965
Source: United States (US)
Launch site: WALLOPS ISLAND (WLPIS)

Note: This is SATELLITE DEBRIS
Your satellite tracking list
Your tracking list is empty




NASA's NSSDC Master Catalog

Two Line Element Set (TLE):
1 02088U 65093D   24251.25102502  .00006046  00000-0  12614-2 0  9994
2 02088  59.7171 302.5214 0084348 165.3782 194.9733 14.58714376 59226
Source of the keplerian elements: AFSPC